Regional Weather Roundup
Issued by NWS Goodland, KS

Home | Current Version | Previous Version | Graphics & Text | Print | Product List | Glossary On
Versions: 1 2 3 4 5 6 7 8 9 10 11 12 13 14 15 16 17 18 19 20 21 22 23 24 25 26 27 28 29 30 31 32 33 34 35 36 37 38 39 40 41 42 43 44 45 46 47 48 49 50
624
ASUS43 KGLD 262159
RWRGLD

GOODLAND FORECAST AREA HOURLY WEATHER ROUNDUP
NATIONAL WEATHER SERVICE GOODLAND KS
400 PM MDT WED JUL 26 2017

...OFFICIAL OBSERVATIONS...

CITY           SKY/WX    TMP DP  RH WIND       PRES   REMARKS
GOODLAND KS    MOSUNNY   84  66  54 NE15G25   30.09F
HILL CITY KS   PTSUNNY   90  72  55 N20       29.97S
IMPERIAL NEB   CLOUDY    82  63  52 NE17      30.10S
MCCOOK NEB     CLOUDY    79  69  71 N15       30.06S
AKRON CO       MOSUNNY   84  57  39 NE20      30.18S
BURLINGTON CO  MOSUNNY   86  62  44 NE15G29   30.12F
LIMON CO       MOSUNNY   84  60  44 N9        30.20F
$$

...UNOFFICIAL OBSERVATIONS...

CITY           SKY/WX    TMP DP  RH WIND       PRES   REMARKS
LENORA KS        N/A     82  32  16 MISG        N/A
NORTON KS      PTSUNNY   81  64  57 N18G24    30.00S
SHARON SPRINGS   N/A     84  69  61 NE13G21     N/A
TRENTON NEB      N/A     77  32  19 NE6         N/A
KIT CARSON CO    N/A     86  63  46 MISG        N/A
YUMA CO        PTSUNNY   81  54  39 NE14      30.14S
$$




USA.gov is the U.S. government's official web portal to all federal, state and local government web resources and services.